Change the Weather History Date:

Tuesday, March 25, 2014

  Actual Average Record
Temperature  
Mean Temperature 38 °F -  
Max Temperature 52 °F 53 °F 81 °F (1967)
Min Temperature 23 °F 26 °F -6 °F (1965)
Degree Days  
Heating Degree Days 28    
Moisture  
Dew Point 20 °F    
Average Humidity 56    
Maximum Humidity 82    
Minimum Humidity 32    
Precipitation  
Precipitation 0.00 in - - ()
Sea Level Pressure  
Sea Level Pressure 30.14 in    
Wind  
Wind Speed 9 mph (ESE)    
Max Wind Speed 18 mph    
Max Gust Speed 24 mph    
Visibility 10 miles    
Events Snow    
Averages and records for this station are not official NWS values.
T = Trace of Precipitation, MM = Missing Value Source: NWS Daily Summary

Daily Weather History Graph

Daily Weather History Graph

Search for Another Location

Airport or City:

Trip Planner

Search our weather history database for the weather conditions in past years. The results will help you decide how hot, cold, wet, or windy it might be!

Date:

Astronomy

Mar. 25, 2014 Rise Set
Actual Time 6:41 AM MDT 7:04 PM MDT
Civil Twilight 6:14 AM MDT 7:32 PM MDT
Nautical Twilight 5:42 AM MDT 8:04 PM MDT
Astronomical Twilight 5:08 AM MDT 8:38 PM MDT
Moon 3:08 AM MDT (3/25) 1:35 PM MDT (3/25)
Length of Visible Light 13h 17m
Length of Day
12h 22m
Waning Crescent, 31% of the Moon is Illuminated
Mar 25
Waning Crescent
Mar 30
New
Apr 7
First Quarter
Apr 15
Full
Apr 22
Last Quarter

Hourly Weather History & Observations

Time (MDT) Temp. Windchill Dew Point Humidity Pressure Visibility Wind Dir Wind Speed Gust Speed Precip Events Conditions
12:15 AM 27.9 °F 19.1 °F 21.7 °F 78% 30.32 in 10.0 mi North 9.2 mph - N/A   Scattered Clouds
12:35 AM 28.2 °F 19.5 °F 21.2 °F 75% 30.33 in 10.0 mi North 9.2 mph - N/A   Scattered Clouds
12:55 AM 28.2 °F 19.5 °F 21.2 °F 75% 30.33 in 10.0 mi North 9.2 mph - N/A   Scattered Clouds
1:15 AM 28.0 °F 18.6 °F 21.7 °F 77% 30.34 in 10.0 mi North 10.4 mph - N/A   Scattered Clouds
1:35 AM 28.9 °F 20.4 °F 22.1 °F 76% 30.34 in 10.0 mi North 9.2 mph - N/A   Mostly Cloudy
1:55 AM 28.9 °F 20.4 °F 21.0 °F 72% 30.34 in 10.0 mi NNE 9.2 mph - N/A   Overcast
2:15 AM 27.1 °F 16.9 °F 21.9 °F 81% 30.34 in 10.0 mi NNE 11.5 mph - N/A   Overcast
2:35 AM 27.0 °F 17.3 °F 22.1 °F 82% 30.34 in 5.0 mi North 10.4 mph - N/A Snow Light Snow
2:55 AM 26.6 °F 19.1 °F 21.0 °F 79% 30.34 in 4.0 mi NNE 6.9 mph - N/A Snow Light Snow
3:15 AM 27.0 °F 23.0 °F 20.7 °F 77% 30.33 in 10.0 mi North 3.5 mph - N/A   Overcast
3:35 AM 27.1 °F 18.9 °F 18.7 °F 70% 30.33 in 10.0 mi NE 8.1 mph - N/A   Overcast
3:55 AM 26.2 °F 16.4 °F 16.3 °F 66% 30.33 in 10.0 mi NE 10.4 mph - N/A   Overcast
4:15 AM 25.7 °F 17.1 °F 15.6 °F 66% 30.32 in 10.0 mi NE 8.1 mph - N/A   Overcast
4:35 AM 25.5 °F 17.8 °F 14.9 °F 64% 30.32 in 10.0 mi ENE 6.9 mph - N/A   Overcast
4:55 AM 25.2 °F 16.5 °F 14.4 °F 64% 30.32 in 10.0 mi NE 8.1 mph - N/A   Overcast
5:15 AM 24.8 °F 16.9 °F 14.0 °F 64% 30.32 in 10.0 mi NE 6.9 mph - N/A   Overcast
5:35 AM 23.9 °F 16.8 °F 14.0 °F 66% 30.32 in 10.0 mi NE 5.8 mph - N/A   Overcast
5:55 AM 23.9 °F 18.0 °F 13.6 °F 65% 30.33 in 10.0 mi ENE 4.6 mph - N/A   Overcast
6:15 AM 23.4 °F 17.4 °F 12.4 °F 63% 30.33 in 10.0 mi ENE 4.6 mph - N/A   Overcast
6:35 AM 23.4 °F 18.9 °F 11.8 °F 61% 30.34 in 10.0 mi East 3.5 mph - N/A   Overcast
6:55 AM 23.5 °F 19.1 °F 11.8 °F 61% 30.33 in 10.0 mi ENE 3.5 mph - N/A   Overcast
7:15 AM 23.5 °F 17.6 °F 12.4 °F 62% 30.33 in 10.0 mi East 4.6 mph - N/A   Overcast
7:35 AM 23.9 °F 19.5 °F 12.6 °F 62% 30.33 in 10.0 mi ESE 3.5 mph - N/A   Mostly Cloudy
7:55 AM 23.9 °F 19.5 °F 10.8 °F 57% 30.34 in 10.0 mi SE 3.5 mph - N/A   Mostly Cloudy
8:15 AM 24.8 °F 17.9 °F 11.7 °F 57% 30.33 in 10.0 mi SE 5.8 mph - N/A   Mostly Cloudy
8:35 AM 25.3 °F 21.1 °F 12.2 °F 58% 30.33 in 10.0 mi SE 3.5 mph - N/A   Scattered Clouds
8:55 AM 26.2 °F 19.6 °F 13.1 °F 58% 30.33 in 10.0 mi South 5.8 mph - N/A   Overcast
9:15 AM 27.0 °F 20.5 °F 14.2 °F 59% 30.32 in 10.0 mi SSE 5.8 mph - N/A   Overcast
9:35 AM 27.7 °F 20.4 °F 14.2 °F 57% 30.31 in 10.0 mi SSE 6.9 mph - N/A   Overcast
9:55 AM 28.2 °F 21.0 °F 14.7 °F 57% 30.29 in 10.0 mi South 6.9 mph - N/A   Overcast
10:15 AM 29.3 °F 20.8 °F 15.4 °F 56% 30.29 in 10.0 mi South 9.2 mph - N/A   Mostly Cloudy
10:35 AM 31.5 °F 24.2 °F 15.4 °F 52% 30.28 in 10.0 mi SSE 8.1 mph - N/A   Mostly Cloudy
10:55 AM 32.0 °F 24.2 °F 16.0 °F 52% 30.27 in 10.0 mi South 9.2 mph - N/A   Scattered Clouds
11:15 AM 33.1 °F 24.9 °F 17.4 °F 53% 30.25 in 10.0 mi SSW 10.4 mph - N/A   Clear
11:35 AM 34.0 °F 26.6 °F 18.3 °F 53% 30.24 in 10.0 mi South 9.2 mph 17.3 mph N/A   Clear
12:15 PM 37.4 °F 29.3 °F 20.3 °F 50% 30.19 in 10.0 mi SSW 12.7 mph 18.4 mph N/A   Clear
12:35 PM 38.8 °F 30.8 °F 21.0 °F 49% 30.17 in 10.0 mi South 13.8 mph 20.7 mph N/A   Clear
12:55 PM 40.3 °F 33.0 °F 20.8 °F 46% 30.16 in 10.0 mi South 12.7 mph 20.7 mph N/A   Clear
1:15 PM 41.2 °F 33.4 °F 21.0 °F 45% 30.14 in 10.0 mi South 15.0 mph 18.4 mph N/A   Clear
1:35 PM 43.2 °F 35.9 °F 21.7 °F 43% 30.12 in 10.0 mi SSW 15.0 mph 20.7 mph N/A   Clear
1:55 PM 44.4 °F 37.2 °F 21.4 °F 40% 30.10 in 10.0 mi SW 16.1 mph - N/A   Clear
2:15 PM 45.3 °F 37.8 °F 21.6 °F 39% 30.08 in 10.0 mi SSW 18.4 mph 23.0 mph N/A   Clear
2:35 PM 46.4 °F 40.7 °F 22.5 °F 39% 30.07 in 10.0 mi South 12.7 mph 21.9 mph N/A   Clear
2:55 PM 47.7 °F - 22.5 °F 37% 30.05 in 10.0 mi SSW 17.3 mph 24.2 mph N/A   Clear
3:15 PM 48.4 °F - 21.9 °F 35% 30.04 in 10.0 mi South 15.0 mph 21.9 mph N/A   Clear
3:35 PM 49.5 °F - 22.1 °F 34% 30.02 in 10.0 mi South 12.7 mph 21.9 mph N/A   Clear
3:55 PM 50.0 °F - 22.1 °F 33% 30.00 in 10.0 mi South 13.8 mph - N/A   Clear
4:15 PM 51.1 °F - 22.5 °F 33% 29.99 in 10.0 mi South 15.0 mph 21.9 mph N/A   Clear
4:35 PM 51.1 °F - 22.6 °F 33% 29.98 in 10.0 mi South 13.8 mph 21.9 mph N/A   Clear
4:55 PM 51.8 °F - 23.2 °F 33% 29.97 in 10.0 mi South 15.0 mph 20.7 mph N/A   Clear
5:15 PM 51.4 °F - 23.2 °F 33% 29.96 in 10.0 mi South 15.0 mph 20.7 mph N/A   Clear
5:35 PM 52.2 °F - 23.2 °F 32% 29.94 in 10.0 mi South 13.8 mph 23.0 mph N/A   Clear
5:55 PM 50.9 °F - 23.5 °F 34% 29.94 in 10.0 mi SSE 13.8 mph - N/A   Clear
6:15 PM 49.3 °F - 23.9 °F 37% 29.92 in 10.0 mi SSE 11.5 mph - N/A   Clear
6:35 PM 48.0 °F - 24.4 °F 40% 29.91 in 10.0 mi SE 9.2 mph - N/A   Clear
6:55 PM 46.2 °F 42.2 °F 25.3 °F 44% 29.91 in 10.0 mi SE 8.1 mph - N/A   Clear
7:15 PM 44.4 °F 40.5 °F 25.3 °F 47% 29.89 in 10.0 mi ESE 6.9 mph - N/A   Clear
7:35 PM 43.3 °F 38.1 °F 25.2 °F 49% 29.89 in 10.0 mi ESE 9.2 mph - N/A   Clear
7:55 PM 41.9 °F 37.5 °F 25.5 °F 52% 29.88 in 10.0 mi East 6.9 mph - N/A   Clear
8:15 PM 41.0 °F 35.8 °F 25.3 °F 54% 29.89 in 10.0 mi East 8.1 mph - N/A   Clear
8:35 PM 40.3 °F 34.4 °F 25.0 °F 54% 29.89 in 10.0 mi ESE 9.2 mph - N/A   Clear
8:55 PM 39.6 °F 34.0 °F 24.8 °F 56% 29.89 in 10.0 mi East 8.1 mph - N/A   Clear
9:15 PM 38.5 °F 32.7 °F 24.8 °F 58% 29.89 in 10.0 mi East 8.1 mph - N/A   Clear
9:35 PM 37.6 °F 32.3 °F 24.6 °F 60% 29.88 in 10.0 mi East 6.9 mph - N/A   Clear
9:55 PM 37.4 °F 31.4 °F 24.6 °F 60% 29.88 in 10.0 mi ESE 8.1 mph - N/A   Clear
10:15 PM 37.0 °F 31.0 °F 24.4 °F 60% 29.88 in 10.0 mi ESE 8.1 mph - N/A   Clear
10:35 PM 36.5 °F 31.0 °F 24.4 °F 62% 29.87 in 10.0 mi East 6.9 mph - N/A   Clear
10:55 PM 36.1 °F 31.4 °F 24.3 °F 62% 29.86 in 10.0 mi East 5.8 mph - N/A   Clear
11:15 PM 35.6 °F 29.9 °F 23.9 °F 62% 29.85 in 10.0 mi East 6.9 mph - N/A   Clear
11:35 PM 34.9 °F 28.3 °F 23.7 °F 64% 29.84 in 10.0 mi ENE 8.1 mph - N/A   Clear
11:55 PM 34.2 °F 27.5 °F 23.5 °F 65% 29.82 in 10.0 mi ENE 8.1 mph - N/A   Clear